Wind_Speed
109 105 102 100 101 95 90 89 84 83 76 69 68 61 59 59 55 52 50 47 40 32 31 29 27 23 22 19 18 17 15 15 14 14 13 13 13 13 16 17 19 21 22
120 117 109 100 105 105 103 94 90 86 79 73 70 68 65 62 59 53 50 48 44 39 36 36 32 29 27 26 23 22 21 18 17 17 20 14 14 15 15 18 19 24 26
126 128 120 119 109 112 108 100 95 87 84 80 81 74 67 64 61 53 53 51 50 48 47 39 36 32 30 31 30 25 24 22 22 21 21 22 18 19 18 19 20 22 25
130 133 131 123 123 120 118 110 103 96 91 89 81 81 78 70 68 69 67 62 56 54 53 46 41 37 37 34 35 30 26 28 26 26 24 25 24 22 22 21 22 23 26
109 118 130 133 125 123 125 119 114 101 95 91 87 83 82 83 84 77 73 68 62 55 54 51 47 44 40 38 37 35 33 30 31 31 30 29 28 28 27 25 24 25 26
117 111 115 123 132 132 126 122 118 113 103 99 92 86 84 82 81 78 74 65 64 62 57 53 48 49 45 40 38 36 35 33 32 33 33 36 33 32 30 28 27 28 29
125 121 114 116 117 126 135 131 123 121 110 103 101 90 80 80 83 83 77 71 64 58 56 55 52 50 51 47 41 36 36 38 36 37 39 41 41 35 36 34 31 29 30
118 125 121 116 117 119 122 132 134 128 122 115 109 102 90 76 77 80 77 72 67 65 66 63 58 54 53 52 49 45 45 41 41 43 41 45 47 41 39 38 36 33 31
107 116 122 119 119 119 121 123 128 136 130 119 120 110 103 94 82 77 77 76 75 72 72 67 62 59 56 54 54 51 49 50 49 47 46 45 47 48 45 44 41 39 39
89 103 115 119 121 123 122 121 119 127 132 128 117 118 109 101 95 83 75 77 79 80 76 72 68 65 65 64 62 59 56 54 54 50 48 48 49 47 45 46 46 44 44
76 84 95 111 121 125 126 122 117 116 124 128 122 117 116 108 100 91 81 69 74 74 83 81 76 69 66 64 62 61 57 52 55 53 51 53 50 48 46 46 47 49 48
69 75 80 91 107 119 125 121 118 114 110 120 127 121 112 114 105 95 81 66 71 79 82 82 82 78 74 69 62 63 60 57 56 58 54 53 53 51 49 48 47 47 46
63 69 74 79 87 102 120 129 126 114 111 106 119 124 120 115 111 99 82 89 77 83 84 82 82 75 75 76 69 66 66 62 61 61 59 57 53 55 56 55 54 52 48
56 65 70 76 81 89 103 119 124 119 111 105 104 118 120 118 110 106 100 91 87 90 84 85 87 81 74 74 73 70 68 65 65 65 63 63 58 58 56 55 56 54 53
48 55 63 68 76 84 96 105 114 118 113 104 99 105 119 120 116 113 106 96 94 87 73 82 87 81 76 75 75 74 68 68 67 69 68 66 65 64 61 58 58 54 56
43 50 56 61 68 77 84 92 99 106 109 104 100 96 109 118 120 118 111 97 91 84 78 72 81 78 60 63 81 83 81 79 76 73 70 69 67 67 67 62 62 58 57
41 43 51 56 61 69 75 83 89 97 104 108 99 98 102 114 124 121 123 125 116 102 89 89 74 70 64 72 80 80 76 69 69 66 70 66 62 66 71 72 67 61 59
39 39 44 51 57 63 69 75 79 87 96 103 102 101 98 107 110 120 126 123 99 100 105 101 77 70 73 82 92 90 75 68 70 68 72 75 75 81 80 77 73 71 71
35 37 41 46 52 57 63 68 73 81 90 98 101 102 98 103 110 115 117 115 117 106 104 106 94 90 86 76 92 73 64 68 73 79 77 75 78 80 81 83 82 85 81
34 36 39 43 48 53 58 64 67 74 84 91 96 102 101 104 113 116 114 119 124 115 113 108 102 93 93 94 96 74 53 93 79 67 73 78 81 81 83 83 84 83 81
31 34 38 40 44 50 54 59 63 68 76 84 90 98 102 102 113 119 119 122 130 127 104 114 117 91 94 87 95 79 77 79 78 74 72 67 74 82 84 89 92 89 88
31 31 37 38 41 45 50 55 59 65 70 79 86 95 102 105 114 117 122 123 127 129 120 110 124 113 95 96 91 90 91 90 93 82 68 75 80 88 89 82 87 81 86
32 33 35 37 40 45 48 53 57 61 67 74 81 89 98 104 108 118 123 128 129 131 132 126 120 128 110 105 101 102 88 90 94 94 66 77 73 80 87 88 74 86 85
30 35 36 37 40 43 47 50 54 59 65 70 77 86 95 102 107 112 124 129 133 133 134 134 135 134 136 117 110 110 108 104 98 96 100 85 74 71 82 82 80 82 82
31 33 36 39 40 42 44 46 52 58 64 67 72 80 88 96 104 111 116 129 133 136 139 138 141 140 141 146 145 136 130 112 113 95 99 102 96 80 76 71 77 80 90
32 33 35 37 40 43 44 46 50 55 59 66 70 75 83 91 98 107 112 117 129 133 137 142 142 143 143 140 141 133 140 125 109 105 106 109 100 97 101 83 78 81 81
Wind_Direction
241 242 235 232 229 234 233 235 235 234 235 235 238 236 235 237 234 233 238 242 244 241 242 237 242 246 252 256 268 275 282 294 304 310 321 328 336 336 339 347 346 335 344
238 241 243 235 230 231 230 230 231 233 233 233 235 237 235 232 233 233 235 243 247 247 242 242 239 246 244 253 254 261 270 275 287 296 303 309 317 319 331 331 338 343 342
239 238 241 241 234 231 230 229 229 233 235 229 232 234 234 230 236 238 243 244 246 245 243 243 239 245 245 247 253 253 261 266 274 281 291 295 301 302 314 319 327 337 343
240 240 241 239 240 233 230 230 226 230 236 231 230 233 234 233 237 241 243 247 247 246 246 244 248 247 251 246 247 252 253 260 267 270 280 285 290 295 298 308 318 328 334
239 238 239 240 239 238 236 229 229 224 229 234 231 229 232 236 240 245 249 251 245 248 251 249 248 249 249 250 241 247 252 256 260 265 270 276 281 285 292 300 309 317 324
237 236 235 236 238 238 238 237 231 227 225 230 231 231 232 234 241 246 246 246 243 245 247 249 245 246 246 247 241 243 251 256 263 267 265 269 274 282 282 290 298 307 312
231 236 233 234 234 236 236 236 233 227 223 226 229 229 233 233 237 241 244 243 242 240 238 245 243 244 245 245 244 248 251 257 261 266 264 267 269 272 278 282 287 293 302
233 231 232 232 233 234 234 233 233 232 226 223 225 228 225 230 234 239 241 242 241 238 239 238 244 247 247 244 246 253 256 258 265 268 266 264 270 274 274 280 284 285 290
232 232 232 232 231 233 235 233 232 233 231 225 226 225 227 227 230 233 238 240 239 240 241 239 239 244 245 247 252 255 263 267 267 268 267 267 267 272 275 279 281 284 288
235 232 231 230 230 231 233 235 234 229 229 229 224 224 225 224 229 230 231 239 241 241 242 242 240 241 246 251 255 258 261 263 265 267 269 267 264 266 273 275 279 282 286
239 235 232 231 231 231 232 234 236 233 228 227 225 222 224 225 225 229 232 235 244 247 245 243 242 242 243 246 253 259 260 262 264 265 266 268 267 268 270 272 275 280 283
230 231 234 231 230 231 232 235 236 237 232 227 226 221 222 224 225 228 230 241 245 249 250 249 247 249 249 244 247 254 258 259 261 262 264 265 269 270 274 271 272 280 281
237 234 229 227 228 228 229 231 233 236 234 228 225 221 219 224 223 224 224 216 231 243 247 251 254 254 251 248 248 251 255 258 261 263 265 265 265 269 273 277 277 280 280
234 234 232 226 225 224 226 229 231 233 234 231 224 222 218 219 223 222 222 218 224 227 232 247 251 254 259 253 253 253 254 257 260 261 261 263 263 264 268 275 276 280 279
240 238 234 230 227 225 224 226 228 229 230 230 226 222 219 217 222 220 221 222 221 220 226 236 248 252 258 263 264 256 254 255 259 260 261 261 261 263 265 271 273 274 271
241 237 236 234 230 228 228 229 227 228 228 229 227 221 219 218 216 217 220 217 214 221 228 234 243 248 253 264 259 261 258 253 255 259 259 260 262 264 265 267 268 268 264
245 241 237 235 233 232 228 227 228 227 226 227 226 222 218 218 213 214 218 222 226 233 237 234 232 235 256 263 249 260 259 257 252 256 256 259 263 267 269 268 268 269 261
247 240 238 234 233 232 232 229 227 227 226 224 223 222 218 218 213 216 219 222 226 230 230 226 229 221 225 228 242 250 246 253 257 259 260 264 267 267 267 268 269 273 274
245 238 236 233 231 232 233 232 228 226 226 224 221 221 217 214 209 215 217 216 217 218 222 222 225 222 215 228 230 242 247 250 260 260 259 260 265 265 265 267 267 268 272
255 243 236 234 231 229 229 231 229 226 226 227 222 221 217 211 209 214 214 214 213 215 225 220 219 219 218 226 227 229 221 247 254 252 258 267 267 265 264 267 270 271 270
255 250 242 236 231 230 228 229 228 227 225 225 222 221 218 215 210 214 212 214 214 223 221 222 223 220 217 221 225 221 229 237 245 256 263 265 264 268 272 274 274 270 272
252 247 245 240 234 230 229 227 227 227 226 224 223 220 220 216 213 214 214 214 213 218 221 218 219 225 218 216 216 222 232 240 246 250 261 256 270 278 271 273 270 269 272
257 248 243 243 238 234 228 227 225 225 225 224 223 222 221 219 216 214 213 215 216 216 219 223 220 221 222 223 228 232 237 241 242 244 241 251 257 259 268 272 267 268 273
259 252 248 240 241 238 236 230 226 224 225 223 222 222 222 221 220 216 216 216 217 220 223 222 225 225 227 227 230 232 242 244 240 244 242 239 240 243 260 265 269 273 271
264 257 248 244 238 240 240 237 232 225 224 223 223 223 223 222 222 222 218 218 219 219 223 224 226 226 229 230 235 239 241 243 243 246 244 242 238 237 246 252 255 262 264
269 261 257 248 242 238 237 236 235 232 226 225 223 223 223 224 224 223 223 222 221 222 224 224 227 228 229 230 232 235 237 240 239 241 241 240 240 243 240 246 243 248 257
Height
10660 10670 10699 10710 10715 10716 10734 10737 10743 10752 10766 10778 10781 10791 10799 10804 10811 10816 10819 10826 10832 10837 10840 10844 10844 10846 10846 10847 10847 10848 10848 10847 10846 10845 10844 10843 10842 10840 10838 10836 10835 10831 10828
10644 10651 10661 10689 10699 10692 10701 10717 10726 10733 10753 10767 10768 10773 10781 10793 10799 10806 10814 10818 10825 10831 10832 10835 10838 10841 10842 10842 10843 10844 10844 10844 10843 10842 10840 10840 10839 10837 10836 10833 10832 10830 10826
10619 10626 10635 10648 10668 10674 10686 10701 10713 10727 10733 10750 10752 10759 10767 10781 10795 10803 10805 10810 10813 10819 10822 10828 10833 10834 10836 10837 10837 10839 10839 10839 10838 10838 10837 10835 10835 10833 10833 10831 10828 10826 10824
10588 10600 10606 10621 10628 10645 10658 10678 10696 10711 10719 10729 10742 10752 10761 10770 10778 10784 10788 10798 10806 10810 10814 10821 10825 10828 10828 10831 10832 10834 10834 10834 10834 10833 10833 10831 10830 10828 10827 10827 10825 10821 10819
10551 10567 10576 10591 10602 10616 10631 10654 10671 10693 10700 10710 10728 10735 10747 10757 10763 10770 10780 10789 10797 10803 10807 10814 10818 10820 10822 10824 10827 10828 10829 10830 10829 10828 10828 10827 10826 10824 10822 10820 10820 10818 10815
10517 10537 10547 10557 10571 10588 10602 10623 10649 10669 10681 10692 10708 10724 10736 10746 10750 10760 10769 10777 10783 10791 10798 10802 10807 10808 10813 10816 10819 10822 10823 10825 10826 10825 10825 10822 10821 10820 10818 10816 10815 10814 10813
10484 10502 10519 10531 10543 10551 10569 10586 10612 10638 10661 10677 10688 10706 10719 10731 10737 10744 10753 10760 10770 10779 10786 10787 10791 10796 10799 10806 10811 10814 10816 10817 10818 10819 10818 10817 10815 10816 10814 10812 10811 10810 10809
10454 10474 10488 10506 10516 10524 10533 10549 10574 10604 10631 10653 10669 10684 10697 10708 10723 10728 10740 10748 10755 10762 10765 10774 10779 10783 10787 10794 10800 10804 10808 10811 10811 10810 10810 10811 10809 10809 10808 10805 10804 10804 10802
10430 10445 10465 10481 10492 10500 10507 10518 10542 10569 10600 10627 10646 10662 10677 10692 10702 10714 10724 10731 10738 10744 10749 10759 10767 10771 10775 10779 10786 10793 10796 10800 10802 10801 10802 10802 10801 10802 10801 10797 10796 10796 10794
10411 10423 10440 10458 10468 10478 10484 10494 10513 10537 10564 10597 10623 10639 10657 10671 10683 10695 10709 10717 10724 10728 10732 10742 10750 10757 10761 10765 10771 10778 10783 10786 10788 10791 10792 10792 10791 10794 10794 10790 10786 10786 10785
10393 10405 10419 10433 10445 10453 10462 10476 10488 10508 10538 10565 10594 10616 10631 10648 10663 10678 10693 10706 10711 10716 10715 10723 10731 10741 10746 10751 10756 10761 10767 10773 10773 10778 10780 10780 10781 10784 10787 10786 10781 10776 10777
10367 10379 10396 10408 10421 10436 10444 10457 10471 10484 10512 10538 10565 10588 10605 10624 10647 10668 10683 10695 10702 10700 10700 10705 10714 10725 10734 10736 10744 10746 10751 10758 10761 10762 10768 10769 10771 10771 10774 10777 10777 10774 10771
10354 10359 10369 10380 10395 10409 10419 10427 10443 10460 10478 10507 10534 10562 10585 10604 10626 10649 10663 10675 10677 10688 10691 10691 10699 10709 10721 10725 10731 10735 10736 10741 10747 10749 10754 10755 10761 10761 10760 10764 10766 10765 10765
10335 10340 10349 10357 10367 10379 10389 10399 10417 10437 10455 10476 10504 10532 10559 10579 10603 10626 10639 10649 10660 10682 10675 10677 10682 10695 10706 10713 10718 10721 10726 10727 10731 10734 10739 10739 10747 10748 10749 10753 10754 10754 10752
10319 10326 10332 10341 10348 10356 10363 10372 10389 10409 10431 10454 10477 10503 10530 10555 10576 10601 10614 10628 10633 10644 10652 10660 10669 10686 10699 10705 10706 10707 10710 10714 10715 10719 10723 10725 10729 10730 10735 10740 10740 10744 10742
10304 10308 10314 10324 10332 10340 10351 10363 10375 10390 10414 10432 10451 10478 10501 10525 10550 10570 10584 10597 10611 10622 10635 10645 10662 10670 10675 10683 10687 10691 10694 10699 10701 10706 10708 10711 10713 10715 10717 10721 10723 10729 10730
10292 10297 10301 10308 10316 10323 10333 10342 10355 10369 10384 10406 10432 10451 10473 10491 10520 10545 10559 10575 10593 10606 10618 10632 10641 10651 10653 10671 10674 10674 10679 10682 10688 10691 10694 10696 10700 10699 10699 10700 10706 10713 10715
10281 10285 10288 10293 10299 10306 10314 10326 10340 10352 10367 10380 10407 10426 10450 10469 10490 10513 10534 10554 10574 10583 10600 10613 10623 10630 10648 10656 10653 10662 10664 10665 10671 10676 10681 10686 10685 10683 10682 10681 10688 10695 10701
10267 10272 10274 10278 10284 10291 10300 10308 10320 10332 10344 10357 10381 10402 10426 10448 10467 10486 10509 10529 10547 10560 10575 10586 10599 10609 10615 10630 10640 10650 10648 10654 10656 10660 10664 10668 10668 10663 10657 10663 10670 10674 10681
10256 10258 10261 10264 10270 10275 10283 10292 10302 10315 10326 10339 10360 10379 10402 10423 10439 10457 10480 10501 10521 10531 10536 10558 10565 10580 10594 10607 10620 10628 10629 10643 10643 10640 10647 10654 10655 10647 10642 10646 10652 10657 10658
10244 10247 10249 10253 10257 10262 10268 10276 10286 10297 10307 10319 10338 10356 10379 10399 10417 10430 10449 10469 10489 10500 10514 10528 10542 10557 10568 10582 10592 10607 10619 10616 10618 10626 10631 10632 10632 10630 10628 10629 10635 10643 10636
10231 10235 10236 10240 10244 10248 10254 10262 10270 10280 10291 10302 10316 10333 10351 10371 10389 10406 10423 10440 10459 10474 10487 10498 10517 10535 10541 10551 10564 10575 10586 10598 10600 10609 10608 10616 10616 10614 10612 10610 10617 10623 10621
10222 10222 10225 10228 10230 10234 10239 10246 10253 10264 10273 10284 10298 10312 10328 10345 10362 10379 10398 10415 10431 10445 10458 10471 10489 10510 10520 10530 10541 10550 10562 10572 10577 10589 10598 10596 10599 10598 10596 10594 10594 10601 10598
10211 10210 10213 10216 10219 10221 10226 10232 10239 10248 10255 10265 10277 10288 10302 10319 10335 10353 10372 10388 10402 10419 10432 10444 10456 10474 10494 10506 10516 10525 10535 10551 10555 10565 10578 10588 10592 10585 10576 10581 10584 10579 10575
10200 10200 10201 10203 10207 10211 10214 10220 10225 10231 10239 10249 10259 10269 10281 10296 10312 10326 10342 10358 10373 10386 10400 10411 10425 10443 10459 10478 10487 10500 10514 10523 10531 10541 10547 10554 10556 10560 10555 10560 10568 10560 10556
10189 10189 10190 10193 10195 10197 10201 10205 10210 10215 10224 10232 10240 10251 10261 10273 10285 10299 10313 10330 10345 10358 10372 10385 10394 10411 10427 10443 10458 10471 10481 10496 10510 10510 10516 10524 10533 10531 10539 10543 10544 10537 10535